DW5071 Weather Reports


Display with metric or nautical units.
time (UTC)temp
F
wind
direction
speed
MPH
gust
MPH
rain 1hr
in
rain 24hr
in
rain mn
in
humidity
%
barometer
mb
20171017204016 96 0.0 2.0 0.00 0.00 0.00 22 1010.3
20171017203516 95 0.0 2.0 0.00 0.00 0.00 22 1010.3
20171017203016 95 0.0 1.0 0.00 0.00 0.00 22 1010.3
20171017202516 95 0.0 2.0 0.00 0.00 0.00 23 1010.4
20171017202016 94 0.0 2.0 0.00 0.00 0.00 23 1010.5
20171017201516 94 0.0 1.0 0.00 0.00 0.00 25 1010.5
20171017201016 93 0.0 1.0 0.00 0.00 0.00 23 1010.6
20171017200516 93 157 1.0 2.0 0.00 0.00 0.00 24 1010.8
20171017200016 93 0.0 1.0 0.00 0.00 0.00 24 1010.9
20171017195516 93 0.0 1.0 0.00 0.00 0.00 24 1011.0
20171017195016 94 0.0 2.0 0.00 0.00 0.00 24 1011.1
20171017194516 94 0.0 1.0 0.00 0.00 0.00 24 1011.2
20171017194016 94 0.0 2.0 0.00 0.00 0.00 23 1011.4
20171017193516 94 0.0 2.0 0.00 0.00 0.00 23 1011.5
20171017193016 94 0.0 1.0 0.00 0.00 0.00 24 1011.6
20171017192516 94 0.0 1.0 0.00 0.00 0.00 23 1011.8
20171017192016 93 0.0 1.0 0.00 0.00 0.00 23 1011.9
20171017191516 93 0.0 0.0 0.00 0.00 0.00 24 1012.0
20171017191016 92 0.0 3.0 0.00 0.00 0.00 24 1012.0
20171017190516 92 0.0 1.0 0.00 0.00 0.00 25 1012.1
20171017190016 92 247 1.0 2.0 0.00 0.00 0.00 24 1012.2
20171017185516 92 0.0 2.0 0.00 0.00 0.00 25 1012.3
20171017185016 92 0.0 1.0 0.00 0.00 0.00 25 1012.4
20171017184516 91 0.0 1.0 0.00 0.00 0.00 25 1012.5
20171017184016 91 0.0 1.0 0.00 0.00 0.00 25 1012.6
20171017183516 92 0.0 0.0 0.00 0.00 0.00 25 1012.7
20171017183017 91 0.0 2.0 0.00 0.00 0.00 26 1012.8
20171017182516 91 0.0 0.0 0.00 0.00 0.00 26 1012.9
20171017182018 90 0.0 1.0 0.00 0.00 0.00 25 1013.0
20171017181516 91 0.0 1.0 0.00 0.00 0.00 26 1013.1
20171017181016 90 0.0 1.0 0.00 0.00 0.00 26 1013.3
20171017180516 90 0.0 3.0 0.00 0.00 0.00 26 1013.3
20171017180016 89 0.0 2.0 0.00 0.00 0.00 28 1013.4
20171017175516 89 0.0 0.0 0.00 0.00 0.00 28 1013.5
20171017175016 89 0.0 1.0 0.00 0.00 0.00 27 1013.5
20171017174516 89 0.0 2.0 0.00 0.00 0.00 29 1013.6
20171017174016 88 0.0 0.0 0.00 0.00 0.00 29 1013.7
20171017173516 88 0.0 1.0 0.00 0.00 0.00 28 1013.7
20171017173017 88 0.0 1.0 0.00 0.00 0.00 28 1013.7
20171017172516 87 0.0 1.0 0.00 0.00 0.00 29 1013.7
20171017172016 86 0.0 1.0 0.00 0.00 0.00 29 1013.7
20171017171516 86 0.0 1.0 0.00 0.00 0.00 29 1013.8
20171017171016 86 0.0 1.0 0.00 0.00 0.00 30 1013.8
20171017170516 86 0.0 1.0 0.00 0.00 0.00 31 1013.9
20171017170016 85 0.0 1.0 0.00 0.00 0.00 31 1013.9
20171017165516 85 0.0 0.0 0.00 0.00 0.00 31 1013.9
20171017165016 84 0.0 0.0 0.00 0.00 0.00 32 1013.9
20171017164516 83 0.0 0.0 0.00 0.00 0.00 32 1013.9
20171017164016 83 0.0 0.0 0.00 0.00 0.00 33 1014.0
20171017163516 82 0.0 0.0 0.00 0.00 0.00 33 1014.0
20171017163016 82 0.0 1.0 0.00 0.00 0.00 33 1013.9
20171017162517 81 0.0 0.0 0.00 0.00 0.00 33 1014.0
20171017162016 81 0.0 0.0 0.00 0.00 0.00 34 1014.0
20171017161516 81 0.0 0.0 0.00 0.00 0.00 35 1014.0
20171017161016 80 0.0 0.0 0.00 0.00 0.00 35 1014.0
20171017160516 80 0.0 0.0 0.00 0.00 0.00 35 1014.1
20171017160016 80 0.0 0.0 0.00 0.00 0.00 35 1014.1
20171017155516 81 0.0 0.0 0.00 0.00 0.00 34 1014.2
20171017155016 81 0.0 0.0 0.00 0.00 0.00 34 1014.2
20171017154516 81 0.0 0.0 0.00 0.00 0.00 35 1014.2
20171017154016 81 0.0 0.0 0.00 0.00 0.00 34 1014.2
20171017153516 82 0.0 0.0 0.00 0.00 0.00 36 1014.2
20171017153016 82 0.0 0.0 0.00 0.00 0.00 35 1014.2
20171017152516 82 0.0 0.0 0.00 0.00 0.00 35 1014.1
20171017152016 81 0.0 0.0 0.00 0.00 0.00 35 1014.1
20171017151518 81 0.0 0.0 0.00 0.00 0.00 36 1014.0
20171017151016 80 0.0 0.0 0.00 0.00 0.00 38 1013.9
20171017150516 79 0.0 0.0 0.00 0.00 0.00 39 1013.9
20171017150016 78 0.0 0.0 0.00 0.00 0.00 40 1013.9
20171017145516 77 0.0 0.0 0.00 0.00 0.00 41 1013.8
20171017145016 75 0.0 0.0 0.00 0.00 0.00 43 1013.8
20171017144516 74 0.0 0.0 0.00 0.00 0.00 44 1013.7
20171017144016 73 0.0 0.0 0.00 0.00 0.00 45 1013.7
20171017143516 71 0.0 0.0 0.00 0.00 0.00 49 1013.5
20171017143016 69 0.0 0.0 0.00 0.00 0.00 51 1013.5
20171017142516 66 0.0 0.0 0.00 0.00 0.00 54 1013.5
20171017142016 65 0.0 0.0 0.00 0.00 0.00 57 1013.4
20171017141517 64 0.0 0.0 0.00 0.00 0.00 56 1013.3
20171017141016 63 0.0 0.0 0.00 0.00 0.00 57 1013.3
20171017140516 63 0.0 0.0 0.00 0.00 0.00 56 1013.2
20171017140016 63 0.0 0.0 0.00 0.00 0.00 56 1013.2
20171017135516 63 0.0 0.0 0.00 0.00 0.00 56 1013.2
20171017135016 63 0.0 0.0 0.00 0.00 0.00 56 1013.3
20171017134516 63 0.0 0.0 0.00 0.00 0.00 56 1013.2
20171017134016 63 0.0 0.0 0.00 0.00 0.00 56 1013.2
20171017133516 63 0.0 0.0 0.00 0.00 0.00 56 1013.2
20171017133016 64 0.0 0.0 0.00 0.00 0.00 56 1013.2
20171017132516 64 0.0 0.0 0.00 0.00 0.00 55 1013.1
20171017132016 63 0.0 0.0 0.00 0.00 0.00 56 1013.1
20171017131516 63 0.0 0.0 0.00 0.00 0.00 56 1013.1
20171017131015 63 0.0 0.0 0.00 0.00 0.00 56 1013.1
20171017130515 63 0.0 0.0 0.00 0.00 0.00 55 1013.1
20171017130016 63 0.0 0.0 0.00 0.00 0.00 55 1013.1
20171017125516 63 0.0 0.0 0.00 0.00 0.00 54 1013.1
20171017125016 64 0.0 0.0 0.00 0.00 0.00 54 1013.0
20171017124516 64 0.0 0.0 0.00 0.00 0.00 54 1012.9
20171017124015 64 0.0 0.0 0.00 0.00 0.00 54 1013.0
20171017123516 64 0.0 0.0 0.00 0.00 0.00 54 1013.0
20171017123016 64 0.0 0.0 0.00 0.00 0.00 54 1013.0
20171017122516 64 0.0 0.0 0.00 0.00 0.00 54 1013.0
20171017122016 64 0.0 0.0 0.00 0.00 0.00 54 1013.0
20171017121516 64 0.0 0.0 0.00 0.00 0.00 52 1013.0
20171017121018 64 0.0 0.0 0.00 0.00 0.00 51 1012.9
20171017120515 65 0.0 0.0 0.00 0.00 0.00 51 1012.8
20171017120016 65 0.0 0.0 0.00 0.00 0.00 51 1012.8
20171017115515 65 0.0 0.0 0.00 0.00 0.00 50 1012.9
20171017115016 65 0.0 0.0 0.00 0.00 0.00 50 1012.8
20171017114516 65 0.0 0.0 0.00 0.00 0.00 50 1012.8
20171017114015 65 0.0 0.0 0.00 0.00 0.00 50 1012.7
20171017113516 65 0.0 0.0 0.00 0.00 0.00 50 1012.8
20171017113016 65 0.0 0.0 0.00 0.00 0.00 49 1012.7
20171017112516 65 0.0 0.0 0.00 0.00 0.00 49 1012.7
20171017112016 65 0.0 0.0 0.00 0.00 0.00 49 1012.7
20171017111516 65 0.0 0.0 0.00 0.00 0.00 49 1012.6
20171017111016 65 0.0 0.0 0.00 0.00 0.00 50 1012.5
20171017110516 66 0.0 0.0 0.00 0.00 0.00 50 1012.5
20171017110016 66 0.0 0.0 0.00 0.00 0.00 50 1012.5
20171017105515 65 0.0 0.0 0.00 0.00 0.00 51 1012.5
20171017105016 65 0.0 0.0 0.00 0.00 0.00 51 1012.5
20171017104516 65 0.0 0.0 0.00 0.00 0.00 50 1012.5
20171017104016 65 0.0 0.0 0.00 0.00 0.00 49 1012.5
20171017103516 65 0.0 0.0 0.00 0.00 0.00 49 1012.5
20171017103016 65 0.0 0.0 0.00 0.00 0.00 50 1012.5
20171017102516 65 0.0 0.0 0.00 0.00 0.00 49 1012.5
20171017102016 66 0.0 0.0 0.00 0.00 0.00 50 1012.5
20171017101516 66 0.0 0.0 0.00 0.00 0.00 50 1012.5
20171017101015 66 0.0 0.0 0.00 0.00 0.00 49 1012.5
20171017100515 66 0.0 0.0 0.00 0.00 0.00 48 1012.5
20171017100016 66 0.0 0.0 0.00 0.00 0.00 48 1012.6
20171017095516 66 0.0 0.0 0.00 0.00 0.00 47 1012.6
20171017095016 66 0.0 0.0 0.00 0.00 0.00 47 1012.6
20171017094516 67 0.0 0.0 0.00 0.00 0.00 47 1012.7
20171017094016 67 0.0 0.0 0.00 0.00 0.00 47 1012.7
20171017093516 67 0.0 0.0 0.00 0.00 0.00 47 1012.7
20171017093015 67 0.0 0.0 0.00 0.00 0.00 46 1012.7
20171017092516 67 0.0 0.0 0.00 0.00 0.00 47 1012.8
20171017092016 67 0.0 0.0 0.00 0.00 0.00 47 1012.8
20171017091015 67 0.0 0.0 0.00 0.00 0.00 46 1012.9
20171017090518 67 0.0 0.0 0.00 0.00 0.00 45 1012.9
20171017090016 68 0.0 0.0 0.00 0.00 0.00 45 1012.9
20171017085516 68 0.0 0.0 0.00 0.00 0.00 44 1013.0
20171017085016 68 0.0 0.0 0.00 0.00 0.00 44 1013.0
20171017084516 68 0.0 0.0 0.00 0.00 0.00 45 1013.0
20171017084016 68 0.0 0.0 0.00 0.00 0.00 45 1013.0
20171017083516 68 0.0 0.0 0.00 0.00 0.00 45 1013.0
20171017083015 68 0.0 0.0 0.00 0.00 0.00 45 1013.0
20171017082515 68 0.0 0.0 0.00 0.00 0.00 45 1013.0
20171017082015 68 0.0 0.0 0.00 0.00 0.00 45 1013.0
20171017081516 68 0.0 0.0 0.00 0.00 0.00 46 1012.9
20171017081016 68 0.0 0.0 0.00 0.00 0.00 45 1012.9
20171017080515 68 0.0 0.0 0.00 0.00 0.00 46 1012.9
20171017080016 68 0.0 0.0 0.00 0.00 0.00 45 1013.0
20171017075516 68 0.0 0.0 0.00 0.00 0.00 45 1012.9
20171017075015 68 0.0 0.0 0.00 0.00 0.00 45 1012.9
20171017074516 69 0.0 0.0 0.00 0.00 0.00 45 1013.0
20171017074015 69 0.0 0.0 0.00 0.00 0.00 45 1013.0
20171017073515 69 0.0 0.0 0.00 0.00 0.00 44 1012.9
20171017073016 69 0.0 0.0 0.00 0.00 0.00 44 1012.9
20171017072515 69 0.0 0.0 0.00 0.00 0.00 44 1013.0
20171017072016 69 0.0 0.0 0.00 0.00 0.00 44 1012.9
20171017071515 69 0.0 0.0 0.00 0.00 0.00 43 1012.9
20171017071015 69 0.0 0.0 0.00 0.00 0.00 44 1012.8
20171017070515 70 0.0 0.0 0.00 0.00 0.00 43 1012.9
20171017070016 70 0.0 0.0 0.00 0.00 0.00 42 1012.9
20171017065516 70 0.0 0.0 0.00 0.00 0.00 42 1012.9
20171017065016 70 0.0 0.0 0.00 0.00 0.00 42 1012.9
20171017064516 71 0.0 0.0 0.00 0.00 0.00 41 1012.8
20171017064017 71 0.0 0.0 0.00 0.00 0.00 41 1012.8
20171017063517 71 0.0 0.0 0.00 0.00 0.00 41 1012.8
20171017063016 71 0.0 0.0 0.00 0.00 0.00 41 1012.9
20171017062516 71 0.0 0.0 0.00 0.00 0.00 41 1012.8
20171017062016 72 0.0 0.0 0.00 0.00 0.00 41 1012.8
20171017061517 72 0.0 0.0 0.00 0.00 0.00 40 1012.8
20171017061016 72 0.0 0.0 0.00 0.00 0.00 40 1012.8
20171017060516 73 0.0 0.0 0.00 0.00 0.00 39 1012.8
20171017060018 73 0.0 0.0 0.00 0.00 0.00 39 1012.8
20171017055516 73 0.0 0.0 0.00 0.00 0.00 38 1012.8
20171017055016 73 0.0 1.0 0.00 0.00 0.00 40 1012.8
20171017054516 73 0.0 1.0 0.00 0.00 0.00 40 1012.9
20171017054016 72 0.0 2.0 0.00 0.00 0.00 41 1012.9
20171017053517 72 0.0 0.0 0.00 0.00 0.00 40 1012.9
20171017053016 73 0.0 0.0 0.00 0.00 0.00 40 1012.8
20171017052516 73 0.0 0.0 0.00 0.00 0.00 39 1012.8
20171017052016 74 0.0 0.0 0.00 0.00 0.00 38 1012.7
20171017051516 74 0.0 0.0 0.00 0.00 0.00 37 1012.7
20171017051016 75 0.0 0.0 0.00 0.00 0.00 36 1012.8
20171017050516 75 0.0 0.0 0.00 0.00 0.00 36 1012.8
20171017050016 75 0.0 0.0 0.00 0.00 0.00 35 1012.8
20171017045516 75 0.0 0.0 0.00 0.00 0.00 36 1012.8
20171017045016 75 0.0 0.0 0.00 0.00 0.00 36 1012.8
20171017044517 75 0.0 0.0 0.00 0.00 0.00 35 1012.8
20171017044017 75 0.0 0.0 0.00 0.00 0.00 36 1012.7
20171017043518 75 0.0 1.0 0.00 0.00 0.00 35 1012.6
20171017043016 75 0.0 1.0 0.00 0.00 0.00 36 1012.7
20171017042517 75 0.0 0.0 0.00 0.00 0.00 37 1012.6
20171017042016 75 0.0 0.0 0.00 0.00 0.00 37 1012.6
20171017041516 75 0.0 0.0 0.00 0.00 0.00 36 1012.6
20171017041016 75 0.0 0.0 0.00 0.00 0.00 37 1012.6
20171017040516 75 0.0 0.0 0.00 0.00 0.00 37 1012.5
20171017040016 76 0.0 0.0 0.00 0.00 0.00 36 1012.5
20171017035516 76 0.0 0.0 0.00 0.00 0.00 36 1012.4
20171017035016 76 0.0 0.0 0.00 0.00 0.00 35 1012.3
20171017034516 76 0.0 0.0 0.00 0.00 0.00 35 1012.4
20171017034016 77 0.0 0.0 0.00 0.00 0.00 35 1012.3
20171017033516 77 0.0 0.0 0.00 0.00 0.00 34 1012.2
20171017033016 77 0.0 0.0 0.00 0.00 0.00 34 1012.2
20171017032517 77 0.0 0.0 0.00 0.00 0.00 34 1012.2
20171017032016 78 0.0 0.0 0.00 0.00 0.00 33 1012.2
20171017031517 78 0.0 0.0 0.00 0.00 0.00 35 1012.3
20171017031016 78 0.0 0.0 0.00 0.00 0.00 35 1012.2
20171017030516 78 0.0 0.0 0.00 0.00 0.00 33 1012.2
20171017030016 78 0.0 0.0 0.00 0.00 0.00 33 1012.2
20171017025518 79 0.0 0.0 0.00 0.00 0.00 33 1012.2
20171017025016 79 0.0 0.0 0.00 0.00 0.00 34 1012.1
20171017024516 80 0.0 0.0 0.00 0.00 0.00 32 1012.0
20171017024016 80 0.0 0.0 0.00 0.00 0.00 28 1011.9
20171017023516 80 0.0 0.0 0.00 0.00 0.00 28 1011.8
20171017023016 81 0.0 0.0 0.00 0.00 0.00 28 1011.7
20171017022516 81 0.0 0.0 0.00 0.00 0.00 28 1011.5
20171017022016 81 0.0 0.0 0.00 0.00 0.00 28 1011.5
20171017021516 81 0.0 0.0 0.00 0.00 0.00 27 1011.4
20171017021016 82 0.0 0.0 0.00 0.00 0.00 27 1011.4
20171017020516 82 0.0 0.0 0.00 0.00 0.00 26 1011.4
20171017020017 82 0.0 0.0 0.00 0.00 0.00 27 1011.4
20171017015516 82 0.0 0.0 0.00 0.00 0.00 26 1011.3
20171017015017 83 0.0 0.0 0.00 0.00 0.00 26 1011.3
20171017014516 83 0.0 0.0 0.00 0.00 0.00 25 1011.3
20171017014016 84 0.0 0.0 0.00 0.00 0.00 25 1011.3
20171017013517 84 0.0 0.0 0.00 0.00 0.00 24 1011.3
20171017013017 85 0.0 0.0 0.00 0.00 0.00 24 1011.3
20171017012517 85 0.0 0.0 0.00 0.00 0.00 23 1011.3
20171017012016 86 0.0 0.0 0.00 0.00 0.00 22 1011.3
20171017011517 87 0.0 0.0 0.00 0.00 0.00 21 1011.3
20171017011016 87 0.0 0.0 0.00 0.00 0.00 21 1011.3
20171017010516 88 0.0 0.0 0.00 0.00 0.00 20 1011.3
20171017010017 89 0.0 0.0 0.00 0.00 0.00 20 1011.3
20171017005516 89 0.0 0.0 0.00 0.00 0.00 19 1011.3
20171017005016 90 0.0 0.0 0.00 0.00 0.00 20 1011.4
20171017004516 90 0.0 0.0 0.00 0.00 0.00 19 1011.4
20171017004016 91 0.0 0.0 0.00 0.00 0.00 18 1011.4
20171017003516 92 0.0 0.0 0.00 0.00 0.00 17 1011.4
20171017003016 92 0.0 0.0 0.00 0.00 0.00 17 1011.4
20171017002516 93 0.0 0.0 0.00 0.00 0.00 17 1011.5
20171017002016 93 0.0 1.0 0.00 0.00 0.00 16 1011.5
20171017001517 93 0.0 0.0 0.00 0.00 0.00 15 1011.5
20171017001016 94 0.0 0.0 0.00 0.00 0.00 16 1011.5
20171017000516 94 0.0 0.0 0.00 0.00 0.00 15 1011.5
20171017000016 95 0.0 1.0 0.00 0.00 0.00 16 1011.6
20171016235516 95 0.0 2.0 0.00 0.00 0.00 15 1011.6
20171016235018 96 0.0 1.0 0.00 0.00 0.00 14 1011.7
20171016234516 96 0.0 1.0 0.00 0.00 0.00 15 1011.7
20171016234016 97 0.0 1.0 0.00 0.00 0.00 15 1011.8
20171016233516 97 0.0 2.0 0.00 0.00 0.00 13 1011.8
20171016233016 98 0.0 1.0 0.00 0.00 0.00 13 1011.9
20171016232516 98 0.0 0.0 0.00 0.00 0.00 14 1012.0
20171016232017 98 0.0 1.0 0.00 0.00 0.00 14 1012.0
20171016231517 97 0.0 1.0 0.00 0.00 0.00 14 1011.9
20171016231016 98 0.0 1.0 0.00 0.00 0.00 14 1012.0
20171016230516 97 0.0 1.0 0.00 0.00 0.00 14 1011.9
20171016230016 97 247 1.0 2.0 0.00 0.00 0.00 14 1012.0
20171016225516 97 0.0 2.0 0.00 0.00 0.00 14 1012.0
20171016225016 96 225 1.0 2.0 0.00 0.00 0.00 14 1012.0
20171016224516 96 0.0 1.0 0.00 0.00 0.00 15 1012.1
20171016224016 96 0.0 1.0 0.00 0.00 0.00 14 1012.0
20171016223516 96 0.0 2.0 0.00 0.00 0.00 14 1012.0
20171016223016 96 270 1.0 3.0 0.00 0.00 0.00 14 1012.1
20171016222517 96 270 1.0 4.0 0.00 0.00 0.00 14 1012.1
20171016222017 96 270 1.0 3.0 0.00 0.00 0.00 14 1012.1
20171016221516 96 247 1.0 3.0 0.00 0.00 0.00 14 1012.1
20171016221016 96 270 1.0 5.0 0.00 0.00 0.00 14 1012.1
20171016220516 96 270 1.0 3.0 0.00 0.00 0.00 14 1012.2
20171016220016 96 270 1.0 5.0 0.00 0.00 0.00 14 1012.2
20171016215516 96 0.0 2.0 0.00 0.00 0.00 14 1012.2
20171016215016 96 0.0 1.0 0.00 0.00 0.00 14 1012.3
20171016214516 96 0.0 1.0 0.00 0.00 0.00 14 1012.3
20171016214016 96 270 1.0 4.0 0.00 0.00 0.00 14 1012.4
20171016213516 96 270 1.0 3.0 0.00 0.00 0.00 15 1012.5
20171016213016 96 292 1.0 3.0 0.00 0.00 0.00 14 1012.4
20171016212516 96 0.0 2.0 0.00 0.00 0.00 14 1012.4
20171016212016 96 0.0 1.0 0.00 0.00 0.00 14 1012.5
20171016211516 96 247 1.0 4.0 0.00 0.00 0.00 14 1012.6
20171016211016 96 247 2.0 5.0 0.00 0.00 0.00 15 1012.6
20171016210516 96 247 1.0 4.0 0.00 0.00 0.00 15 1012.7
20171016210016 96 247 1.0 3.0 0.00 0.00 0.00 13 1012.6
20171016205516 96 247 1.0 6.0 0.00 0.00 0.00 13 1012.7
20171016205016 96 270 1.0 4.0 0.00 0.00 0.00 14 1012.8
20171016204520 96 270 2.0 7.0 0.00 0.00 0.00 14 1012.9